Overview Statistics Trail Chart Weather Telemetry Raw packets
 

This is the latest recevied weather packets stored in our database for station/object LU2DKV-10. If no packets are shown the sender has not sent any weather packets the latest 10 day(s).

<< 1 2 3 4 5 6 >>
Time Temp. Humidity Pressure Rain* Wind** Luminosity Snow
1788597229 10° C 61% 1020 hPa - - 0 W/m² -
1788595407 10° C 61% 1020 hPa - - 0 W/m² -
1788593585 10.56° C 60% 1019 hPa - - 0 W/m² -
1788591763 11.11° C 60% 1019 hPa - - 0 W/m² -
1788591155 11.11° C 60% 1019 hPa - - 0 W/m² -
1788589332 11.11° C 60% 1019 hPa - - 0 W/m² -
1788587508 11.11° C 58% 1019 hPa - - 0 W/m² -
1788585686 11.67° C 58% 1019 hPa - - 0 W/m² -
1788583863 11.67° C 57% 1019 hPa - - 0 W/m² -
1788582040 11.67° C 54% 1019 hPa - - 0 W/m² -
1788580217 12.22° C 53% 1018 hPa - - 0 W/m² -
1788578395 12.78° C 49% 1018 hPa - - 0 W/m² -
1788576567 13.33° C 46% 1017 hPa - - 0 W/m² -
1788574743 13.89° C 49% 1017 hPa - - 0 W/m² -
1788572920 14.44° C 46% 1017 hPa - - 0 W/m² -
1788571097 14.44° C 53% 1016 hPa - - 0 W/m² -
1788569274 15° C 67% 1016 hPa - - 0 W/m² -
1788567451 14.44° C 49% 1016 hPa - - 0 W/m² -
1788565621 14.44° C 47% 1015 hPa - - 0 W/m² -
1788563793 14.44° C 45% 1015 hPa - - 0 W/m² -
1788561969 15° C 42% 1015 hPa - - 0 W/m² -
1788560146 15.56° C 40% 1015 hPa - - 0 W/m² -
1788558322 16.11° C 39% 1015 hPa - - 0 W/m² -
1788556499 16.11° C 37% 1015 hPa - - 0 W/m² -
1788554676 16.67° C 36% 1015 hPa - - 0 W/m² -

* Rain since midnight (hover to see other rain measurements)
** Current wind speed in m/s (hover to see current wind gust speed)